Hourly Weather Reading

Today, 11 August, Tuesday

Time Temperature Precipitation Wind Pressure Humidity
00:00 +22°C° 0 mm 1 mps 757 mmHg 76%
01:00 +22°C° 0 mm 1 mps 757 mmHg 76%
02:00 +22°C° 0 mm 1 mps 756 mmHg 76%
03:00 +20°C° 0 mm 0 mps 756 mmHg 77%
04:00 +20°C° 0 mm 0 mps 756 mmHg 77%
05:00 +20°C° 0 mm 0 mps 756 mmHg 77%
06:00 +21°C° 0 mm 0 mps 756 mmHg 76%
07:00 +25°C° 0 mm 1 mps 757 mmHg 70%
08:00 +26°C° 0 mm 1 mps 757 mmHg 64%
09:00 +28°C° 0 mm 2 mps 757 mmHg 57%
10:00 +30°C° 0 mm 2 mps 757 mmHg 53%
11:00 +31°C° 0 mm 2 mps 757 mmHg 49%
12:00 +32°C° 0 mm 2 mps 757 mmHg 45%
13:00 +34°C° 0 mm 2 mps 757 mmHg 43%
14:00 +35°C° 0 mm 2 mps 756 mmHg 41%
15:00 +35°C° 0 mm 2 mps 756 mmHg 39%
16:00 +34°C° 0 mm 2 mps 756 mmHg 44%
17:00 +32°C° 0 mm 2 mps 756 mmHg 49%
18:00 +31°C° 0 mm 2 mps 756 mmHg 54%
19:00 +29°C° 0.3 mm 2 mps 756 mmHg 60%
20:00 +27°C° 0.3 mm 1 mps 756 mmHg 67%
21:00 +25°C° 0.3 mm 1 mps 756 mmHg 74%
22:00 +24°C° 0.1 mm 1 mps 756 mmHg 75%
23:00 +24°C° 0.1 mm 1 mps 756 mmHg 77%

Tomorrow, 12 August, Wednesday

Time Temperature Precipitation Wind Pressure Humidity
00:00 +23°C° 0.1 mm 1 mps 756 mmHg 79%
01:00 +23°C° 0 mm 1 mps 756 mmHg 79%
02:00 +23°C° 0 mm 1 mps 756 mmHg 79%
03:00 +22°C° 0 mm 1 mps 756 mmHg 79%
04:00 +21°C° 0 mm 0 mps 756 mmHg 79%
05:00 +21°C° 0 mm 0 mps 755 mmHg 78%
06:00 +21°C° 0 mm 0 mps 755 mmHg 78%
07:00 +25°C° 0 mm 1 mps 755 mmHg 72%
08:00 +27°C° 0 mm 1 mps 756 mmHg 66%
09:00 +29°C° 0 mm 1 mps 756 mmHg 60%
10:00 +30°C° 0 mm 2 mps 756 mmHg 55%
11:00 +32°C° 0 mm 2 mps 755 mmHg 50%
12:00 +34°C° 0 mm 2 mps 755 mmHg 46%
13:00 +33°C° 0.2 mm 3 mps 755 mmHg 49%
14:00 +33°C° 0.2 mm 3 mps 755 mmHg 52%
15:00 +31°C° 0.2 mm 3 mps 755 mmHg 55%
16:00 +30°C° 1.4 mm 2 mps 755 mmHg 61%
17:00 +28°C° 1.4 mm 2 mps 754 mmHg 68%
18:00 +27°C° 1.4 mm 2 mps 754 mmHg 74%
19:00 +26°C° 1.6 mm 2 mps 754 mmHg 78%
20:00 +25°C° 1.6 mm 2 mps 755 mmHg 83%
21:00 +23°C° 1.6 mm 2 mps 755 mmHg 87%
22:00 +23°C° 0.5 mm 2 mps 755 mmHg 88%
23:00 +23°C° 0.5 mm 2 mps 755 mmHg 89%

Day after tomorrow, 13 August, Thursday

Time Temperature Precipitation Wind Pressure Humidity
00:00 +23°C° 0.5 mm 2 mps 754 mmHg 90%
01:00 +22°C° 0.1 mm 1 mps 754 mmHg 91%
02:00 +22°C° 0.1 mm 1 mps 754 mmHg 92%
03:00 +21°C° 0.1 mm 1 mps 754 mmHg 93%
04:00 +22°C° 0 mm 1 mps 754 mmHg 92%
05:00 +22°C° 0 mm 1 mps 754 mmHg 91%
06:00 +20°C° 0 mm 0 mps 754 mmHg 90%
07:00 +24°C° 0 mm 1 mps 754 mmHg 84%
08:00 +25°C° 0 mm 1 mps 754 mmHg 77%
09:00 +27°C° 0 mm 2 mps 754 mmHg 71%
10:00 +28°C° 0 mm 2 mps 754 mmHg 66%
11:00 +29°C° 0 mm 2 mps 754 mmHg 61%
12:00 +30°C° 0 mm 2 mps 753 mmHg 57%
13:00 +29°C° 1.2 mm 3 mps 753 mmHg 60%
14:00 +29°C° 1.2 mm 3 mps 753 mmHg 63%
15:00 +29°C° 1.2 mm 4 mps 753 mmHg 66%
16:00 +28°C° 0.9 mm 4 mps 753 mmHg 70%
17:00 +27°C° 0.9 mm 4 mps 753 mmHg 74%
18:00 +26°C° 0.9 mm 4 mps 753 mmHg 77%
19:00 +24°C° 0 mm 3 mps 753 mmHg 82%
20:00 +23°C° 0 mm 2 mps 753 mmHg 86%
21:00 +21°C° 0 mm 2 mps 753 mmHg 90%
22:00 +21°C° 0 mm 1 mps 753 mmHg 91%
23:00 +21°C° 0 mm 1 mps 753 mmHg 93%

14 August, Friday

Time Temperature Precipitation Wind Pressure Humidity
00:00 +20°C° 0 mm 1 mps 753 mmHg 94%
01:00 +20°C° 0 mm 1 mps 753 mmHg 94%
02:00 +20°C° 0 mm 1 mps 753 mmHg 95%
03:00 +20°C° 0 mm 1 mps 754 mmHg 96%
04:00 +20°C° 0 mm 1 mps 754 mmHg 95%
05:00 +20°C° 0 mm 1 mps 754 mmHg 94%
06:00 +20°C° 0 mm 1 mps 754 mmHg 93%
07:00 +21°C° 0 mm 1 mps 754 mmHg 89%
08:00 +20°C° 0 mm 0 mps 754 mmHg 86%
09:00 +21°C° 0 mm 0 mps 755 mmHg 82%
10:00 +23°C° 0.2 mm 1 mps 755 mmHg 80%
11:00 +24°C° 0.2 mm 1 mps 755 mmHg 79%
12:00 +24°C° 0.2 mm 2 mps 755 mmHg 77%
13:00 +25°C° 0.7 mm 2 mps 755 mmHg 75%
14:00 +26°C° 0.7 mm 3 mps 755 mmHg 73%
15:00 +26°C° 0.7 mm 3 mps 755 mmHg 71%
16:00 +26°C° 1.2 mm 3 mps 755 mmHg 75%
17:00 +25°C° 1.2 mm 3 mps 755 mmHg 78%
18:00 +25°C° 1.2 mm 4 mps 755 mmHg 82%
19:00 +22°C° 0.5 mm 4 mps 756 mmHg 86%
20:00 +21°C° 0.5 mm 4 mps 756 mmHg 90%
21:00 +20°C° 0.5 mm 4 mps 756 mmHg 94%
22:00 +20°C° 0 mm 4 mps 756 mmHg 94%
23:00 +19°C° 0 mm 3 mps 756 mmHg 95%

15 August, Saturday

Time Temperature Precipitation Wind Pressure Humidity
00:00 +19°C° 0 mm 3 mps 756 mmHg 96%
01:00 +19°C° 0.1 mm 2 mps 756 mmHg 96%
02:00 +19°C° 0.1 mm 2 mps 756 mmHg 96%
03:00 +19°C° 0.1 mm 2 mps 756 mmHg 96%
04:00 +19°C° 0.2 mm 2 mps 756 mmHg 96%
05:00 +19°C° 0.2 mm 2 mps 756 mmHg 95%
06:00 +19°C° 0.2 mm 2 mps 756 mmHg 95%
07:00 +21°C° 0.1 mm 1 mps 756 mmHg 94%
08:00 +21°C° 0.1 mm 1 mps 756 mmHg 93%
09:00 +21°C° 0.1 mm 1 mps 756 mmHg 92%
10:00 +22°C° 0.1 mm 1 mps 756 mmHg 91%
11:00 +22°C° 0.1 mm 1 mps 756 mmHg 89%
12:00 +21°C° 0.1 mm 2 mps 756 mmHg 88%
13:00 +23°C° 0.2 mm 2 mps 756 mmHg 86%
14:00 +23°C° 0.2 mm 2 mps 756 mmHg 84%
15:00 +24°C° 0.2 mm 2 mps 756 mmHg 82%
16:00 +24°C° 0.2 mm 2 mps 756 mmHg 82%
17:00 +24°C° 0.2 mm 2 mps 756 mmHg 82%
18:00 +24°C° 0.2 mm 2 mps 755 mmHg 82%
19:00 +23°C° 0 mm 2 mps 755 mmHg 86%
20:00 +21°C° 0 mm 2 mps 755 mmHg 90%
21:00 +20°C° 0 mm 2 mps 755 mmHg 94%
22:00 +19°C° 0 mm 2 mps 755 mmHg 94%
23:00 +20°C° 0 mm 1 mps 755 mmHg 95%

16 August, Sunday

Time Temperature Precipitation Wind Pressure Humidity
00:00 +19°C° 0 mm 1 mps 755 mmHg 96%
01:00 +19°C° 0 mm 1 mps 755 mmHg 96%
02:00 +18°C° 0 mm 2 mps 754 mmHg 97%
03:00 +18°C° 0 mm 2 mps 754 mmHg 97%
04:00 +19°C° 0.1 mm 1 mps 754 mmHg 96%
05:00 +20°C° 0.1 mm 1 mps 754 mmHg 96%
06:00 +20°C° 0.1 mm 1 mps 754 mmHg 95%
07:00 +21°C° 0 mm 1 mps 754 mmHg 90%
08:00 +21°C° 0 mm 2 mps 754 mmHg 84%
09:00 +23°C° 0 mm 2 mps 754 mmHg 79%
10:00 +24°C° 0 mm 2 mps 754 mmHg 72%
11:00 +26°C° 0 mm 3 mps 753 mmHg 65%
12:00 +27°C° 0 mm 3 mps 753 mmHg 57%
13:00 +26°C° 1.1 mm 4 mps 753 mmHg 61%
14:00 +26°C° 1.1 mm 4 mps 753 mmHg 64%
15:00 +25°C° 1.1 mm 5 mps 752 mmHg 68%
16:00 +23°C° 0.1 mm 5 mps 752 mmHg 70%
17:00 +22°C° 0.1 mm 5 mps 752 mmHg 72%
18:00 +21°C° 0.1 mm 5 mps 752 mmHg 74%
19:00 +20°C° 0 mm 4 mps 753 mmHg 78%
20:00 +18°C° 0 mm 4 mps 753 mmHg 82%
21:00 +17°C° 0 mm 3 mps 753 mmHg 86%
22:00 +16°C° 0 mm 3 mps 753 mmHg 89%
23:00 +16°C° 0 mm 3 mps 753 mmHg 91%
Show more